Zurück zum Katalog

ORBASTRO-TR5

AktivWissenschaftSSO
NORAD 63236·PAYLOAD·🇬🇧 United Kingdom

Gestartet Mar 15, 2025 von Vandenberg Space Force Base

Loading…

Nächste Überflüge (nächste 24 Stunden)

TLE

AktuellSource: Space-Track

Epoche: Sep 13, 2026, 23:08 UTC

1 63236U 25052AC  26256.96426635  .00003816  00000-0  16664-3 0  9990
2 63236  97.3694 146.9939 0003448 175.7278 184.3988 15.22715367 83323

Verfolge ORBASTRO-TR5 in Echtzeit mit AllMySat

Download on the App Store